| time (UTC) | temp F | wind direction | speed MPH | gust MPH | rain 1hr in | rain 24hr in | rain mn in | humidity % | barometer mb |
| 20260906220718 | 73 | 346 | 4.0 | 4.0 | 0.06 | 0.78 | 0.78 | 90 | 1012.4 |
| 20260906215517 | 73 | 10 | 2.0 | 3.0 | 0.06 | 0.78 | 0.78 | 90 | 1012.8 |
| 20260906214920 | 73 | 17 | 2.0 | 3.0 | 0.06 | 0.78 | 0.78 | 89 | 1012.4 |
| 20260906214316 | 73 | 25 | 6.0 | 8.0 | 0.06 | 0.78 | 0.78 | 89 | 1013.1 |
| 20260906213718 | 73 | 334 | 4.0 | 6.0 | 0.02 | 0.74 | 0.74 | 88 | 1012.8 |
| 20260906213120 | 73 | 358 | 4.0 | 4.0 | 0.01 | 0.72 | 0.72 | 88 | 1013.1 |
| 20260906211915 | 72 | 326 | 6.0 | 6.0 | 0.01 | 0.72 | 0.72 | 89 | 1013.1 |
| 20260906211320 | 72 | 2 | 4.0 | 6.0 | 0.01 | 0.72 | 0.72 | 90 | 1012.4 |
| 20260906210715 | 72 | 355 | 1.0 | 1.0 | 0.01 | 0.72 | 0.72 | 91 | 1012.4 |
| 20260906210118 | 72 | 337 | 2.0 | 2.0 | 0.01 | 0.72 | 0.72 | 91 | 1012.8 |
| 20260906205519 | 72 | 355 | 5.0 | 6.0 | 0.01 | 0.72 | 0.72 | 91 | 1012.8 |
| 20260906204916 | 72 | 5 | 2.0 | 3.0 | 0.01 | 0.72 | 0.72 | 91 | 1012.1 |
| 20260906204314 | 72 | 18 | 4.0 | 4.0 | 0.01 | 0.72 | 0.72 | 91 | 1012.4 |
| 20260906203721 | 72 | 11 | 2.0 | 4.0 | 0.01 | 0.72 | 0.72 | 91 | 1012.4 |
| 20260906203116 | 72 | 37 | 2.0 | 3.0 | 0.00 | 0.71 | 0.71 | 91 | 1012.4 |
| 20260906202517 | 72 | 33 | 5.0 | 6.0 | 0.00 | 0.71 | 0.71 | 91 | 1012.4 |
| 20260906201316 | 72 | 358 | 1.0 | 1.0 | 0.00 | 0.71 | 0.71 | 92 | 1013.1 |
| 20260906200716 | 72 | 4 | 2.0 | 2.0 | 0.00 | 0.71 | 0.71 | 92 | 1013.1 |
| 20260906200119 | 71 | 52 | 2.0 | 2.0 | 0.00 | 0.71 | 0.71 | 92 | 1013.4 |
| 20260906195516 | 71 | 2 | 1.0 | 1.0 | 0.00 | 0.71 | 0.71 | 92 | 1013.4 |
| 20260906194917 | 71 | 2 | 1.0 | 1.0 | 0.02 | 0.71 | 0.71 | 92 | 1013.4 |
| 20260906194319 | 71 | 326 | 2.0 | 2.0 | 0.04 | 0.71 | 0.71 | 92 | 1013.4 |
| 20260906193718 | 71 | 337 | 1.0 | 2.0 | 0.06 | 0.71 | 0.71 | 92 | 1013.8 |
| 20260906193115 | 71 | 270 | 0.0 | 0.0 | 0.08 | 0.71 | 0.71 | 92 | 1013.4 |
| 20260906192521 | 71 | 350 | 1.0 | 1.0 | 0.09 | 0.71 | 0.71 | 92 | 1014.1 |
| 20260906191915 | 70 | 356 | 2.0 | 2.0 | 0.09 | 0.71 | 0.71 | 92 | 1013.8 |
| 20260906191317 | 71 | 14 | 3.0 | 3.0 | 0.10 | 0.71 | 0.71 | 92 | 1013.4 |
| 20260906190719 | 70 | 339 | 1.0 | 1.0 | 0.10 | 0.71 | 0.71 | 93 | 1013.8 |
| 20260906184919 | 70 | 327 | 0.0 | 1.0 | 0.11 | 0.69 | 0.69 | 93 | 1014.5 |
| 20260906184316 | 70 | 328 | 1.0 | 2.0 | 0.11 | 0.67 | 0.67 | 93 | 1014.5 |
| 20260906183718 | 70 | 336 | 0.0 | 0.0 | 0.11 | 0.65 | 0.65 | 93 | 1014.5 |
| 20260906183120 | 70 | 347 | 2.0 | 3.0 | 0.11 | 0.63 | 0.63 | 92 | 1014.5 |
| 20260906182516 | 69 | 317 | 1.0 | 1.0 | 0.12 | 0.62 | 0.62 | 93 | 1014.5 |
| 20260906181916 | 69 | 326 | 0.0 | 1.0 | 0.15 | 0.62 | 0.62 | 92 | 1014.5 |
| 20260906181320 | 69 | 12 | 4.0 | 4.0 | 0.15 | 0.61 | 0.61 | 93 | 1014.5 |
| 20260906180718 | 69 | 50 | 2.0 | 3.0 | 0.15 | 0.61 | 0.61 | 92 | 1014.5 |
| 20260906174917 | 68 | 32 | 3.0 | 3.0 | 0.17 | 0.58 | 0.58 | 92 | 1014.5 |
| 20260906174315 | 68 | 240 | 1.0 | 1.0 | 0.19 | 0.56 | 0.56 | 92 | 1014.5 |
| 20260906173720 | 68 | 240 | 1.0 | 1.0 | 0.19 | 0.54 | 0.54 | 92 | 1014.8 |
| 20260906172516 | 68 | 240 | 0.0 | 0.0 | 0.20 | 0.50 | 0.50 | 92 | 1014.8 |
| 20260906171319 | 67 | 233 | 2.0 | 2.0 | 0.22 | 0.46 | 0.46 | 92 | 1014.8 |
| 20260906170714 | 67 | 313 | 1.0 | 1.0 | 0.23 | 0.46 | 0.46 | 92 | 1014.8 |
| 20260906170120 | 67 | 6 | 0.0 | 0.0 | 0.24 | 0.45 | 0.45 | 92 | 1014.5 |
| 20260906165517 | 67 | 5 | 1.0 | 2.0 | 0.23 | 0.44 | 0.44 | 92 | 1014.1 |
| 20260906164917 | 67 | 35 | 2.0 | 3.0 | 0.21 | 0.41 | 0.41 | 91 | 1013.8 |
| 20260906164318 | 67 | 331 | 1.0 | 1.0 | 0.17 | 0.37 | 0.37 | 91 | 1013.8 |
| 20260906163717 | 67 | 314 | 1.0 | 1.0 | 0.15 | 0.35 | 0.35 | 91 | 1014.1 |
| 20260906162521 | 67 | 271 | 1.0 | 2.0 | 0.10 | 0.30 | 0.30 | 90 | 1014.1 |
| 20260906161916 | 67 | 250 | 2.0 | 3.0 | 0.06 | 0.26 | 0.26 | 90 | 1014.5 |
| 20260906161318 | 67 | 231 | 2.0 | 2.0 | 0.04 | 0.24 | 0.24 | 90 | 1014.5 |
| 20260906160719 | 68 | 250 | 2.0 | 2.0 | 0.03 | 0.23 | 0.23 | 89 | 1014.1 |
| 20260906155517 | 68 | 243 | 2.0 | 2.0 | 0.01 | 0.21 | 0.21 | 89 | 1013.8 |
| 20260906154920 | 68 | 242 | 1.0 | 1.0 | 0.00 | 0.20 | 0.20 | 89 | 1013.4 |
| 20260906154315 | 68 | 269 | 2.0 | 2.0 | 0.01 | 0.20 | 0.20 | 89 | 1013.4 |
| 20260906153717 | 68 | 344 | 0.0 | 0.0 | 0.01 | 0.20 | 0.20 | 89 | 1013.1 |
| 20260906153119 | 67 | 344 | 0.0 | 0.0 | 0.01 | 0.20 | 0.20 | 89 | 1012.8 |
| 20260906152517 | 67 | 358 | 0.0 | 1.0 | 0.01 | 0.20 | 0.20 | 89 | 1012.8 |
| 20260906151917 | 67 | 319 | 0.0 | 0.0 | 0.02 | 0.20 | 0.20 | 88 | 1012.4 |
| 20260906151321 | 66 | 327 | 1.0 | 1.0 | 0.02 | 0.20 | 0.20 | 88 | 1012.4 |
| 20260906150715 | 66 | 337 | 2.0 | 2.0 | 0.03 | 0.20 | 0.20 | 88 | 1012.4 |
| 20260906150117 | 65 | 359 | 2.0 | 3.0 | 0.03 | 0.20 | 0.20 | 87 | 1012.4 |
| 20260906145519 | 65 | 352 | 1.0 | 1.0 | 0.03 | 0.20 | 0.20 | 87 | 1012.4 |
| 20260906144316 | 64 | 12 | 2.0 | 3.0 | 0.04 | 0.19 | 0.19 | 87 | 1012.1 |
| 20260906143721 | 64 | 333 | 2.0 | 2.0 | 0.04 | 0.19 | 0.19 | 87 | 1012.1 |
| 20260906143116 | 64 | 2 | 4.0 | 4.0 | 0.06 | 0.19 | 0.19 | 87 | 1012.4 |
| 20260906142519 | 64 | 342 | 6.0 | 9.0 | 0.07 | 0.19 | 0.19 | 86 | 1012.4 |
| 20260906141918 | 64 | 18 | 7.0 | 9.0 | 0.06 | 0.18 | 0.18 | 86 | 1012.1 |
| 20260906141316 | 64 | 314 | 3.0 | 4.0 | 0.07 | 0.18 | 0.18 | 86 | 1012.4 |
| 20260906140718 | 64 | 344 | 6.0 | 9.0 | 0.07 | 0.17 | 0.17 | 86 | 1012.4 |
| 20260906140121 | 64 | 2 | 9.0 | 10.0 | 0.08 | 0.17 | 0.17 | 86 | 1012.1 |
| 20260906134917 | 64 | 10 | 4.0 | 7.0 | 0.09 | 0.15 | 0.15 | 86 | 1012.8 |
| 20260906134319 | 64 | 356 | 5.0 | 6.0 | 0.11 | 0.15 | 0.15 | 86 | 1012.8 |
| 20260906133716 | 64 | 5 | 4.0 | 4.0 | 0.11 | 0.15 | 0.15 | 86 | 1012.8 |
| 20260906133116 | 64 | 329 | 2.0 | 3.0 | 0.11 | 0.13 | 0.13 | 86 | 1012.4 |
| 20260906132521 | 65 | 316 | 6.0 | 7.0 | 0.10 | 0.12 | 0.12 | 85 | 1012.8 |
| 20260906131317 | 66 | 299 | 2.0 | 2.0 | 0.11 | 0.11 | 0.11 | 85 | 1013.1 |
| 20260906130719 | 66 | 43 | 6.0 | 7.0 | 0.10 | 0.10 | 0.10 | 84 | 1012.8 |
| 20260906130117 | 67 | 9 | 5.0 | 6.0 | 0.09 | 0.09 | 0.09 | 83 | 1012.4 |
| 20260906125514 | 67 | 354 | 3.0 | 3.0 | 0.07 | 0.07 | 0.07 | 81 | 1012.4 |
| 20260906124922 | 69 | 313 | 4.0 | 6.0 | 0.06 | 0.06 | 0.06 | 79 | 1013.1 |
| 20260906124316 | 70 | 212 | 3.0 | 3.0 | 0.04 | 0.04 | 0.04 | 75 | 1013.4 |
| 20260906123120 | 71 | 294 | 0.0 | 1.0 | 0.02 | 0.02 | 0.02 | 66 | 1012.8 |
| 20260906122516 | 72 | 1 | 2.0 | 2.0 | 0.02 | 0.02 | 0.02 | 62 | 1012.1 |
| 20260906121915 | 72 | 179 | 2.0 | 2.0 | 0.00 | 0.00 | 0.00 | 57 | 1011.8 |
| 20260906121320 | 72 | 237 | 1.0 | 1.0 | 0.00 | 0.00 | 0.00 | 54 | 1011.8 |
| 20260906120716 | 72 | 258 | 2.0 | 2.0 | 0.00 | 0.00 | 0.00 | 52 | 1011.4 |
| 20260906120115 | 73 | 323 | 0.0 | 0.0 | 0.00 | 0.00 | 0.00 | 51 | 1011.4 |
| 20260906115520 | 73 | 323 | 0.0 | 0.0 | 0.00 | 0.00 | 0.00 | 50 | 1011.1 |
| 20260906114916 | 73 | 323 | 1.0 | 1.0 | 0.00 | 0.00 | 0.00 | 51 | 1010.7 |
| 20260906113116 | 72 | 348 | 1.0 | 1.0 | 0.00 | 0.00 | 0.00 | 51 | 1011.1 |
| 20260906112516 | 71 | 319 | 2.0 | 2.0 | 0.00 | 0.00 | 0.00 | 52 | 1011.1 |
| 20260906111920 | 71 | 321 | 1.0 | 1.0 | 0.00 | 0.00 | 0.00 | 52 | 1011.1 |
| 20260906111318 | 72 | 321 | 1.0 | 1.0 | 0.00 | 0.00 | 0.00 | 52 | 1011.1 |
| 20260906110716 | 72 | 335 | 2.0 | 2.0 | 0.00 | 0.00 | 0.00 | 52 | 1010.7 |
| 20260906110120 | 72 | 334 | 0.0 | 0.0 | 0.00 | 0.00 | 0.00 | 51 | 1011.1 |
| 20260906105516 | 72 | 334 | 0.0 | 1.0 | 0.00 | 0.00 | 0.00 | 50 | 1011.1 |
| 20260906104918 | 72 | 334 | 1.0 | 1.0 | 0.00 | 0.00 | 0.00 | 49 | 1011.1 |
| 20260906103715 | 72 | 331 | 0.0 | 0.0 | 0.00 | 0.00 | 0.00 | 48 | 1011.1 |
| 20260906103115 | 72 | 327 | 2.0 | 2.0 | 0.00 | 0.00 | 0.00 | 47 | 1011.1 |
| 20260906101917 | 73 | 275 | 0.0 | 0.0 | 0.00 | 0.00 | 0.00 | 46 | 1011.1 |
| 20260906101317 | 72 | 344 | 1.0 | 1.0 | 0.00 | 0.00 | 0.00 | 44 | 1011.1 |
| 20260906100721 | 72 | 345 | 2.0 | 2.0 | 0.00 | 0.00 | 0.00 | 47 | 1010.7 |
| 20260906094921 | 72 | 339 | 0.0 | 0.0 | 0.00 | 0.00 | 0.00 | 47 | 1011.1 |
| 20260906093717 | 72 | 339 | 0.0 | 1.0 | 0.00 | 0.00 | 0.00 | 47 | 1011.1 |
| 20260906093121 | 71 | 339 | 1.0 | 1.0 | 0.00 | 0.00 | 0.00 | 47 | 1011.1 |
| 20260906092518 | 71 | 339 | 1.0 | 1.0 | 0.00 | 0.00 | 0.00 | 48 | 1011.1 |
| 20260906091914 | 71 | 339 | 1.0 | 1.0 | 0.00 | 0.00 | 0.00 | 49 | 1011.1 |
| 20260906091321 | 71 | 339 | 0.0 | 1.0 | 0.00 | 0.00 | 0.00 | 50 | 1010.7 |
| 20260906090717 | 71 | 339 | 0.0 | 0.0 | 0.00 | 0.00 | 0.00 | 50 | 1011.1 |
| 20260906090117 | 71 | 339 | 0.0 | 0.0 | 0.00 | 0.00 | 0.00 | 50 | 1011.1 |
| 20260906085520 | 70 | 339 | 0.0 | 0.0 | 0.00 | 0.00 | 0.00 | 50 | 1011.1 |
| 20260906084916 | 70 | 339 | 0.0 | 0.0 | 0.00 | 0.00 | 0.00 | 50 | 1011.1 |
| 20260906084317 | 70 | 339 | 0.0 | 0.0 | 0.00 | 0.00 | 0.00 | 50 | 1011.4 |
| 20260906083721 | 70 | 339 | 0.0 | 1.0 | 0.00 | 0.00 | 0.00 | 50 | 1011.4 |
| 20260906083116 | 71 | 335 | 0.0 | 1.0 | 0.00 | 0.00 | 0.00 | 50 | 1011.1 |
| 20260906082516 | 71 | 335 | 0.0 | 1.0 | 0.00 | 0.00 | 0.00 | 49 | 1011.4 |
| 20260906081316 | 70 | 335 | 0.0 | 1.0 | 0.00 | 0.00 | 0.00 | 50 | 1011.4 |
| 20260906080625 | 70 | 335 | 0.0 | 1.0 | 0.00 | 0.00 | 0.00 | 49 | 1011.4 |
| 20260906080121 | 70 | 335 | 1.0 | 1.0 | 0.00 | 0.00 | 0.00 | 49 | 1011.4 |
| 20260906075516 | 70 | 335 | 0.0 | 0.0 | 0.00 | 0.00 | 0.00 | 49 | 1011.4 |
| 20260906074320 | 71 | 335 | 0.0 | 1.0 | 0.00 | 0.00 | 0.00 | 49 | 1011.4 |
| 20260906073115 | 70 | 335 | 1.0 | 1.0 | 0.00 | 0.00 | 0.00 | 47 | 1011.4 |
| 20260906072519 | 70 | 335 | 0.0 | 0.0 | 0.00 | 0.00 | 0.00 | 47 | 1011.4 |
| 20260906071916 | 70 | 335 | 0.0 | 0.0 | 0.00 | 0.00 | 0.00 | 47 | 1011.4 |
| 20260906071318 | 70 | 335 | 0.0 | 1.0 | 0.00 | 0.00 | 0.00 | 47 | 1011.4 |
| 20260906064316 | 71 | 338 | 0.0 | 0.0 | 0.00 | 0.00 | 0.00 | 49 | 1011.4 |
| 20260906063716 | 71 | 333 | 1.0 | 1.0 | 0.00 | 0.00 | 0.00 | 50 | 1011.4 |
| 20260906062518 | 71 | 331 | 0.0 | 0.0 | 0.00 | 0.00 | 0.00 | 50 | 1011.4 |
| 20260906061916 | 71 | 331 | 0.0 | 0.0 | 0.00 | 0.00 | 0.00 | 51 | 1011.4 |
| 20260906061322 | 71 | 331 | 0.0 | 0.0 | 0.00 | 0.00 | 0.00 | 51 | 1011.8 |
| 20260906060715 | 71 | 331 | 1.0 | 1.0 | 0.00 | 0.00 | 0.00 | 51 | 1011.4 |
| 20260906060117 | 71 | 330 | 0.0 | 1.0 | 0.00 | 0.00 | 0.00 | 51 | 1011.4 |
| 20260906055519 | 71 | 329 | 0.0 | 1.0 | 0.00 | 0.00 | 0.00 | 52 | 1011.4 |
| 20260906054917 | 71 | 328 | 1.0 | 1.0 | 0.00 | 0.00 | 0.00 | 51 | 1011.4 |
| 20260906054319 | 72 | 328 | 0.0 | 1.0 | 0.00 | 0.00 | 0.00 | 51 | 1011.8 |
| 20260906053723 | 72 | 328 | 0.0 | 0.0 | 0.00 | 0.00 | 0.00 | 57 | 1011.4 |
| 20260906053115 | 72 | 328 | 0.0 | 0.0 | 0.00 | 0.00 | 0.00 | 49 | 1011.4 |
| 20260906052516 | 72 | 328 | 0.0 | 1.0 | 0.00 | 0.00 | 0.00 | 49 | 1011.4 |
| 20260906051918 | 72 | 328 | 0.0 | 1.0 | 0.00 | 0.00 | 0.00 | 49 | 1011.8 |
| 20260906050730 | 72 | 329 | 0.0 | 0.0 | 0.00 | 0.00 | 0.00 | 51 | 1011.8 |
| 20260906050119 | 73 | 329 | 0.0 | 1.0 | 0.00 | 0.00 | 0.00 | 52 | 1011.8 |
| 20260906045517 | 73 | 327 | 0.0 | 0.0 | 0.00 | 0.00 | 0.00 | 54 | 1011.8 |
| 20260906044916 | 73 | 328 | 0.0 | 0.0 | 0.00 | 0.00 | 0.00 | 59 | 1011.8 |
| 20260906043717 | 73 | 323 | 0.0 | 0.0 | 0.00 | 0.00 | 0.00 | 60 | 1011.8 |
| 20260906043116 | 74 | 316 | 0.0 | 0.0 | 0.00 | 0.00 | 0.00 | 62 | 1011.8 |
| 20260906042524 | 74 | 325 | 1.0 | 1.0 | 0.00 | 0.00 | 0.00 | 64 | 1011.8 |
| 20260906041317 | 74 | 246 | 0.0 | 0.0 | 0.00 | 0.00 | 0.00 | 64 | 1011.8 |
| 20260906040719 | 74 | 246 | 0.0 | 0.0 | 0.00 | 0.00 | 0.00 | 64 | 1011.8 |
| 20260906040119 | 74 | 246 | 0.0 | 0.0 | 0.00 | 0.00 | 0.00 | 64 | 1011.4 |
| 20260906034316 | 74 | 252 | 1.0 | 1.0 | 0.00 | 0.00 | 0.00 | 66 | 1011.4 |
| 20260906033716 | 74 | 274 | 0.0 | 1.0 | 0.00 | 0.00 | 0.00 | 66 | 1011.4 |
| 20260906033118 | 74 | 277 | 1.0 | 1.0 | 0.00 | 0.00 | 0.00 | 65 | 1011.1 |
| 20260906032518 | 74 | 259 | 1.0 | 1.0 | 0.00 | 0.00 | 0.00 | 65 | 1011.1 |
| 20260906031916 | 74 | 232 | 2.0 | 2.0 | 0.00 | 0.00 | 0.00 | 64 | 1011.1 |
| 20260906031320 | 74 | 260 | 1.0 | 2.0 | 0.00 | 0.00 | 0.00 | 64 | 1011.1 |
| 20260906030716 | 74 | 276 | 1.0 | 1.0 | 0.00 | 0.00 | 0.00 | 66 | 1011.1 |
| 20260906030117 | 74 | 269 | 1.0 | 1.0 | 0.00 | 0.00 | 0.00 | 66 | 1010.7 |
| 20260906025520 | 75 | 241 | 1.0 | 2.0 | 0.00 | 0.00 | 0.00 | 65 | 1010.7 |
| 20260906024315 | 75 | 225 | 3.0 | 3.0 | 0.00 | 0.00 | 0.00 | 59 | 1011.1 |
| 20260906023115 | 76 | 233 | 2.0 | 2.0 | 0.00 | 0.00 | 0.00 | 52 | 1010.7 |
| 20260906022517 | 76 | 281 | 2.0 | 2.0 | 0.00 | 0.00 | 0.00 | 49 | 1011.1 |
| 20260906021919 | 76 | 233 | 2.0 | 3.0 | 0.00 | 0.00 | 0.00 | 47 | 1011.1 |
| 20260906021317 | 77 | 281 | 3.0 | 3.0 | 0.00 | 0.00 | 0.00 | 45 | 1010.7 |
| 20260906020715 | 77 | 266 | 4.0 | 4.0 | 0.00 | 0.00 | 0.00 | 46 | 1010.7 |
| 20260906020120 | 77 | 269 | 5.0 | 6.0 | 0.00 | 0.00 | 0.00 | 46 | 1011.1 |
| 20260906015516 | 77 | 300 | 3.0 | 4.0 | 0.00 | 0.00 | 0.00 | 46 | 1011.1 |
| 20260906014917 | 78 | 220 | 4.0 | 6.0 | 0.00 | 0.00 | 0.00 | 44 | 1011.1 |
| 20260906014323 | 78 | 297 | 3.0 | 4.0 | 0.00 | 0.00 | 0.00 | 45 | 1011.1 |
| 20260906013717 | 78 | 273 | 5.0 | 6.0 | 0.00 | 0.00 | 0.00 | 44 | 1011.1 |
| 20260906013116 | 78 | 258 | 6.0 | 7.0 | 0.00 | 0.00 | 0.00 | 49 | 1011.1 |
| 20260906012520 | 78 | 202 | 5.0 | 6.0 | 0.00 | 0.00 | 0.00 | 50 | 1011.1 |
| 20260906011915 | 78 | 213 | 5.0 | 7.0 | 0.00 | 0.00 | 0.00 | 52 | 1011.1 |
| 20260906011317 | 78 | 254 | 5.0 | 7.0 | 0.00 | 0.00 | 0.00 | 48 | 1011.1 |
| 20260906010722 | 79 | 235 | 4.0 | 4.0 | 0.00 | 0.00 | 0.00 | 47 | 1011.1 |
| 20260906010118 | 78 | 268 | 4.0 | 6.0 | 0.00 | 0.00 | 0.00 | 47 | 1011.1 |
| 20260906005516 | 79 | 239 | 6.0 | 8.0 | 0.00 | 0.00 | 0.00 | 47 | 1011.1 |
| 20260906004919 | 79 | 273 | 6.0 | 7.0 | 0.00 | 0.00 | 0.00 | 48 | 1011.1 |
| 20260906004318 | 80 | 277 | 4.0 | 4.0 | 0.00 | 0.00 | 0.00 | 47 | 1011.1 |
| 20260906003717 | 79 | 272 | 4.0 | 6.0 | 0.00 | 0.00 | 0.00 | 47 | 1011.1 |
| 20260906003118 | 79 | 278 | 5.0 | 6.0 | 0.00 | 0.00 | 0.00 | 49 | 1010.7 |
| 20260906002517 | 79 | 249 | 6.0 | 8.0 | 0.00 | 0.00 | 0.00 | 48 | 1011.1 |
| 20260906001916 | 80 | 231 | 5.0 | 7.0 | 0.00 | 0.00 | 0.00 | 51 | 1011.1 |
| 20260906000716 | 79 | 248 | 8.0 | 9.0 | 0.00 | 0.00 | 0.00 | 52 | 1011.1 |
| 20260906000119 | 80 | 239 | 4.0 | 7.0 | 0.00 | 0.00 | 0.00 | 50 | 1011.1 |
| 20260905234918 | 80 | 249 | 6.0 | 9.0 | 0.00 | 0.00 | 0.00 | 50 | 1010.7 |
| 20260905234317 | 80 | 253 | 4.0 | 4.0 | 0.00 | 0.00 | 0.00 | 53 | 1010.7 |
| 20260905233117 | 81 | 206 | 7.0 | 8.0 | 0.00 | 0.00 | 0.00 | 51 | 1010.7 |
| 20260905232517 | 81 | 260 | 6.0 | 8.0 | 0.00 | 0.00 | 0.00 | 52 | 1011.1 |
| 20260905231919 | 81 | 262 | 9.0 | 10.0 | 0.00 | 0.00 | 0.00 | 45 | 1010.7 |
| 20260905231318 | 80 | 231 | 6.0 | 8.0 | 0.00 | 0.00 | 0.00 | 52 | 1011.1 |
| 20260905230716 | 81 | 230 | 7.0 | 9.0 | 0.00 | 0.00 | 0.00 | 51 | 1011.1 |
| 20260905230121 | 81 | 258 | 8.0 | 10.0 | 0.00 | 0.00 | 0.00 | 50 | 1011.1 |
| 20260905225517 | 82 | 248 | 6.0 | 7.0 | 0.00 | 0.00 | 0.00 | 52 | 1011.1 |
| 20260905224918 | 83 | 239 | 9.0 | 11.0 | 0.00 | 0.00 | 0.00 | 47 | 1011.1 |
| 20260905224320 | 82 | 290 | 4.0 | 6.0 | 0.00 | 0.00 | 0.00 | 51 | 1011.1 |
| 20260905223719 | 81 | 214 | 6.0 | 7.0 | 0.00 | 0.00 | 0.00 | 44 | 1011.4 |
| 20260905223119 | 82 | 223 | 7.0 | 8.0 | 0.00 | 0.00 | 0.00 | 49 | 1011.4 |
| 20260905222521 | 83 | 246 | 8.0 | 8.0 | 0.00 | 0.00 | 0.00 | 44 | 1011.4 |
| 20260905221916 | 83 | 215 | 4.0 | 6.0 | 0.00 | 0.00 | 0.00 | 44 | 1011.4 |
| 20260905221317 | 82 | 214 | 10.0 | 11.0 | 0.00 | 0.00 | 0.00 | 43 | 1011.4 |